Time,TemperatureF,DewpointF,PressureIn,WindDirection,WindDirectionDegrees,WindSpeedMPH,WindSpeedGustMPH,Humidity,HourlyPrecipIn,Conditions,Clouds,dailyrainin,SolarRadiationWatts/m^2,SoftwareType,DateUTC
2013-09-20 02:00:00,46.0,45.0,-100.00,North,11,2.0,6.0,96,-99.99,,,0.00,0.000000,,2013-09-20 08:00:00,
2013-09-20 02:52:00,46.0,45.0,-100.00,North,11,2.0,6.0,96,-99.99,,,0.00,0.000000,,2013-09-20 08:52:00,
2013-09-20 04:00:00,45.0,44.0,-100.00,North,9,1.0,3.0,95,-99.99,,,0.00,0.000000,,2013-09-20 10:00:00,
2013-09-20 04:53:00,45.0,44.0,-100.00,North,9,1.0,3.0,95,-99.99,,,0.00,0.000000,,2013-09-20 10:53:00,
2013-09-20 05:00:00,45.0,44.0,-100.00,North,9,0.0,3.0,98,-99.99,,,0.00,0.000000,,2013-09-20 11:00:00,
2013-09-20 05:52:00,45.0,44.0,-100.00,North,9,0.0,3.0,98,-99.99,,,0.00,0.000000,,2013-09-20 11:52:00,
2013-09-20 06:00:00,44.0,43.0,-100.00,North,9,0.0,2.0,96,-99.99,,,-99.99,0.000000,,2013-09-20 12:00:00,
2013-09-20 06:52:00,44.0,43.0,-100.00,North,9,0.0,2.0,96,-99.99,,,-99.99,0.000000,,2013-09-20 12:52:00,
2013-09-20 10:00:00,56.0,43.0,-100.00,North,8,1.0,4.0,61,-99.99,,,-99.99,343.700012,,2013-09-20 16:00:00,
2013-09-20 10:53:00,56.0,43.0,-100.00,North,8,1.0,4.0,61,-99.99,,,-99.99,343.700012,,2013-09-20 16:53:00,
2013-09-20 13:00:00,60.0,32.0,-100.00,North,8,1.0,4.0,34,-99.99,,,0.00,547.599976,,2013-09-20 19:00:00,
2013-09-20 13:53:00,60.0,32.0,-100.00,North,8,1.0,4.0,34,-99.99,,,0.00,547.599976,,2013-09-20 19:53:00,
2013-09-20 14:00:00,60.0,36.0,-100.00,North,8,2.0,5.0,40,-99.99,,,0.00,220.100006,,2013-09-20 20:00:00,
2013-09-20 14:52:00,60.0,36.0,-100.00,North,8,2.0,5.0,40,-99.99,,,0.00,220.100006,,2013-09-20 20:52:00,
2013-09-20 15:00:00,61.0,34.0,-100.00,North,7,1.0,4.0,37,-99.99,,,0.00,231.699997,,2013-09-20 21:00:00,
2013-09-20 15:55:00,61.0,34.0,-100.00,North,7,1.0,4.0,37,-99.99,,,0.00,231.699997,,2013-09-20 21:55:00,
2013-09-20 16:00:00,60.0,33.0,-100.00,North,8,1.0,6.0,36,-99.99,,,-99.99,31.100000,,2013-09-20 22:00:00,
2013-09-20 16:53:00,60.0,33.0,-100.00,North,8,1.0,6.0,36,-99.99,,,-99.99,31.100000,,2013-09-20 22:53:00,
2013-09-20 22:00:00,44.0,35.0,-100.00,North,4,0.0,2.0,71,-99.99,,,-99.99,0.000000,,2013-09-21 04:00:00,
2013-09-20 22:54:00,44.0,35.0,-100.00,North,4,0.0,2.0,71,-99.99,,,-99.99,0.000000,,2013-09-21 04:54:00,
2013-09-20 23:00:00,44.0,38.0,-100.00,North,4,0.0,2.0,79,-99.99,,,0.00,0.000000,,2013-09-21 05:00:00,
2013-09-20 23:53:00,44.0,38.0,-100.00,North,4,0.0,2.0,79,-99.99,,,0.00,0.000000,,2013-09-21 05:53:00,